Regional Weather Roundup
Issued by NWS

Home | Current Version | Previous Version | Graphics & Text | Print | Product List | Glossary On
Versions: 1 2 3 4 5 6 7 8 9 10 11 12 13 14 15 16 17 18 19 20 21 22 23 24 25 26 27 28 29 30 31 32 33 34 35 36 37 38 39 40 41 42 43 44 45 46 47 48 49 50
000
ASUS43 KLOT 130158
RWRIL

ILLINOIS REGIONAL WEATHER ROUNDUP
NATIONAL WEATHER SERVICE CHICAGO/ROMEOVILLE IL
900 PM CDT SAT JUL 12 2014

NOTE: "FAIR" INDICATES FEW OR NO CLOUDS BELOW 12,000 FEET WITH NO
SIGNIFICANT WEATHER AND/OR OBSTRUCTIONS TO VISIBILITY.

* THESE STATIONS ARE NOT UNDER NWS QUALITY CONTROL. THEY ALSO MAY NOT
  REPORT WEATHER SUCH AS PRECIPITATION OR FOG.

ILZ001-002-007-009-015-016-024-130300-
NORTHWEST ILLINOIS

CITY           SKY/WX    TMP DP  RH WIND       PRES   REMARKS
MOLINE         TSTM      80  75  84 SW13G25   29.85F HX  85
$$

ILZ003-004-008-010-011-017-018-130300-
NORTH CENTRAL ILLINOIS

CITY           SKY/WX    TMP DP  RH WIND       PRES   REMARKS
ROCKFORD       CLOUDY    77  73  88 S8        29.85F THUNDER
$$

ILZ005-006-012>014-019>023-130300-
NORTHEAST ILLINOIS

CITY           SKY/WX    TMP DP  RH WIND       PRES   REMARKS
CHICAGO-OHARE  CLOUDY    78  71  79 S9        29.87F HX  80
CHICAGO-MIDWAY LGT RAIN  80  76  87 S8        29.87F HX  86
AURORA         LGT RAIN  78  75  90 S7        29.87F FOG     HX  81
WAUKEGAN       LGT RAIN  76  71  85 S7        29.84F
DUPAGE AIRPORT CLOUDY    77  74  90 S6        29.87F
WHEELING       CLOUDY    78  73  84 S8        29.87F HX  81
NORTHERLY ISL    N/A     67  65  93 SE6         N/A
$$

LMZ740>746-130300-
SOUTHERN LAKE MICHIGAN

STATION/POSITION SKY/WX   TEMP    WIND        PRES    VSBY  WAVE
                          AIR SEA DIR/SP/G                  HT/PER
                          (F)     (DEG/KT/KT) (MB)    (MI)  (FT/S)
SOUTHERN BUOY              64 61  160/ 12/ 12 1012.8F         1/ 4
WAUKEGAN HARBOR            67     180/  5/  9 1013.5S
HARRISON CRIB              74     140/  7/ 10   N/A
BURNHAM HARBOR             68     170/  4/  7   N/A
CALUMET HARBOR             78     150/  6/  8 1012.9F
MICHIGAN CITY              77     160/  6/  8   N/A
$$

ILZ025>027-034>036-040-047-049-050-058-095>099-130300-
WEST-CENTRAL ILLINOIS

CITY           SKY/WX    TMP DP  RH WIND       PRES   REMARKS
QUINCY         PTCLDY    82  72  71 S12       29.94F HX  87
$$

ILZ028>032-037-038-041>044-048-051>054-059>061-130300-
CENTRAL ILLINOIS

CITY           SKY/WX    TMP DP  RH WIND       PRES   REMARKS
PEORIA         NOT AVBL
SPRINGFIELD    CLEAR     84  72  67 SW10      29.95S HX  89
TAYLORVILLE    NOT AVBL
$$

ILZ033-039-045-046-055>057-062-063-130300-
EAST-CENTRAL ILLINOIS

CITY           SKY/WX    TMP DP  RH WIND       PRES   REMARKS
CHAMPAIGN      CLEAR     79  76  90 S12       29.96F HX  83
MATTOON        CLEAR     81  76  84 S7        29.99R HX  87
$$

ILZ079-100>102-130300-
SOUTHWEST ILLINOIS

CITY           SKY/WX    TMP DP  RH WIND       PRES   REMARKS
CAHOKIA*       PTCLDY    84  74  71 S5        29.99R HX  91
$$

ILZ064>066-069>071-074>076-080>082-084>086-088>090-092>094-130300-
SOUTH-CENTRAL ILLINOIS

CITY           SKY/WX    TMP DP  RH WIND       PRES   REMARKS
CARBONDALE     PTCLDY    83  74  74 S7        30.02S HX  89
$$

ILZ067-068-072-073-078-083-087-091-130300-
SOUTHEAST ILLINOIS

CITY           SKY/WX    TMP DP  RH WIND       PRES   REMARKS
$$

ABBREVIATIONS USED IN REMARKS
   TC - TEMPERATURE IN CELSIUS
  WCI - WIND CHILL INDEX
   HX - HEAT INDEX
  VSB - VISIBILITY
$$




USA.gov is the U.S. government's official web portal to all federal, state and local government web resources and services.